HISTORICAL SENSOR DATA

Sensor Data Report

DB LIVE
CURRENT TIME--:--:--
DEVICE NETWORK Gateway Status
13 ESP · realtime ~1s · history 60s
Weather WS-MOD-01
OFFLINE
Actuator ACT-MOD-01
OFFLINE
Mainboard L3 MB-L3-01
OFFLINE
Mainboard L5 MB-L5-01
OFFLINE
Remote AC AC-REMOTE-01
OFFLINE
PZEM L3-01 PWR-L3-01
OFFLINE
PZEM L3-02 PWR-L3-02
OFFLINE
PZEM L3-03 PWR-L3-03
OFFLINE
PZEM L3-04 PWR-L3-04
OFFLINE
PZEM L5-01 PWR-L5-01
OFFLINE
PZEM L5-02 PWR-L5-02
OFFLINE
PZEM L5-03 PWR-L5-03
OFFLINE
PZEM L5-04 PWR-L5-04
OFFLINE
REPORT FILTER

Periode & Sensor

DATABASE HISTORY
RESET
QUICK RANGE Hari ini 7 hari 30 hari
PERIODE05 Aug 2026sampai 03 Sep 2026
TOTAL DATA40,294sensor readings
MINIMUM-0.50sesuai filter
AVERAGE56.76sesuai filter
MAXIMUM998.00sesuai filter
REPORT RESULT

Data Sensor

05/08/2026 — 03/09/2026 EXPORT CSV
NOTANGGALWAKTUDEVICECHANNELSENSORVALUEUNIT
9401 02/09/2026 15:34:11 WS-MOD-01Weather Station Module WS-WIND Kecepatan Angin 0.01 m/s
9402 02/09/2026 15:34:11 WS-MOD-01Weather Station Module WS-PRES Tekanan Udara 998.00 hPa
9403 02/09/2026 15:34:06 WS-MOD-01Weather Station Module WS-RH Kelembapan Udara 63.10 %RH
9404 02/09/2026 15:34:06 WS-MOD-01Weather Station Module WS-WIND Kecepatan Angin 0.03 m/s
9405 02/09/2026 15:34:06 WS-MOD-01Weather Station Module WS-PRES Tekanan Udara 998.00 hPa
9406 02/09/2026 15:34:06 WS-MOD-01Weather Station Module WS-TEMP Suhu Udara 30.10 °C
9407 02/09/2026 15:34:06 WS-MOD-01Weather Station Module WS-DIR Arah Angin 308.70 °
9408 02/09/2026 15:34:01 WS-MOD-01Weather Station Module WS-RH Kelembapan Udara 63.10 %RH
9409 02/09/2026 15:34:01 WS-MOD-01Weather Station Module WS-WIND Kecepatan Angin 0.01 m/s
9410 02/09/2026 15:34:01 WS-MOD-01Weather Station Module WS-PRES Tekanan Udara 998.00 hPa
9411 02/09/2026 15:34:01 WS-MOD-01Weather Station Module WS-TEMP Suhu Udara 30.10 °C
9412 02/09/2026 15:34:01 WS-MOD-01Weather Station Module WS-DIR Arah Angin 346.60 °
9413 02/09/2026 15:33:49 WS-MOD-01Weather Station Module WS-PRES Tekanan Udara 998.00 hPa
9414 02/09/2026 15:33:49 WS-MOD-01Weather Station Module WS-TEMP Suhu Udara 30.10 °C
9415 02/09/2026 15:33:49 WS-MOD-01Weather Station Module WS-DIR Arah Angin 304.20 °
9416 02/09/2026 15:33:49 WS-MOD-01Weather Station Module WS-RH Kelembapan Udara 63.00 %RH
9417 02/09/2026 15:33:49 WS-MOD-01Weather Station Module WS-WIND Kecepatan Angin 0.02 m/s
9418 02/09/2026 15:33:44 WS-MOD-01Weather Station Module WS-PRES Tekanan Udara 998.00 hPa
9419 02/09/2026 15:33:44 WS-MOD-01Weather Station Module WS-TEMP Suhu Udara 30.10 °C
9420 02/09/2026 15:33:44 WS-MOD-01Weather Station Module WS-DIR Arah Angin 300.20 °
9421 02/09/2026 15:33:44 WS-MOD-01Weather Station Module WS-RH Kelembapan Udara 62.90 %RH
9422 02/09/2026 15:33:44 WS-MOD-01Weather Station Module WS-WIND Kecepatan Angin 0.02 m/s
9423 02/09/2026 15:33:39 WS-MOD-01Weather Station Module WS-DIR Arah Angin 297.60 °
9424 02/09/2026 15:33:39 WS-MOD-01Weather Station Module WS-RH Kelembapan Udara 63.00 %RH
9425 02/09/2026 15:33:39 WS-MOD-01Weather Station Module WS-WIND Kecepatan Angin 0.02 m/s
9426 02/09/2026 15:33:39 WS-MOD-01Weather Station Module WS-PRES Tekanan Udara 998.00 hPa
9427 02/09/2026 15:33:39 WS-MOD-01Weather Station Module WS-TEMP Suhu Udara 30.10 °C
9428 02/09/2026 15:33:35 WS-MOD-01Weather Station Module WS-RH Kelembapan Udara 62.90 %RH
9429 02/09/2026 15:33:35 WS-MOD-01Weather Station Module WS-WIND Kecepatan Angin 0.02 m/s
9430 02/09/2026 15:33:35 WS-MOD-01Weather Station Module WS-PRES Tekanan Udara 998.00 hPa
9431 02/09/2026 15:33:35 WS-MOD-01Weather Station Module WS-TEMP Suhu Udara 30.10 °C
9432 02/09/2026 15:33:35 WS-MOD-01Weather Station Module WS-DIR Arah Angin 299.20 °
9433 02/09/2026 15:33:29 WS-MOD-01Weather Station Module WS-WIND Kecepatan Angin 0.02 m/s
9434 02/09/2026 15:33:29 WS-MOD-01Weather Station Module WS-PRES Tekanan Udara 998.00 hPa
9435 02/09/2026 15:33:29 WS-MOD-01Weather Station Module WS-TEMP Suhu Udara 30.10 °C
9436 02/09/2026 15:33:29 WS-MOD-01Weather Station Module WS-DIR Arah Angin 301.90 °
9437 02/09/2026 15:33:29 WS-MOD-01Weather Station Module WS-RH Kelembapan Udara 62.70 %RH
9438 02/09/2026 15:33:24 WS-MOD-01Weather Station Module WS-PRES Tekanan Udara 998.00 hPa
9439 02/09/2026 15:33:24 WS-MOD-01Weather Station Module WS-TEMP Suhu Udara 30.10 °C
9440 02/09/2026 15:33:24 WS-MOD-01Weather Station Module WS-DIR Arah Angin 306.50 °
9441 02/09/2026 15:33:24 WS-MOD-01Weather Station Module WS-RH Kelembapan Udara 62.70 %RH
9442 02/09/2026 15:33:24 WS-MOD-01Weather Station Module WS-WIND Kecepatan Angin 0.02 m/s
9443 02/09/2026 15:33:19 WS-MOD-01Weather Station Module WS-TEMP Suhu Udara 30.10 °C
9444 02/09/2026 15:33:19 WS-MOD-01Weather Station Module WS-DIR Arah Angin 308.90 °
9445 02/09/2026 15:33:19 WS-MOD-01Weather Station Module WS-RH Kelembapan Udara 62.80 %RH
9446 02/09/2026 15:33:19 WS-MOD-01Weather Station Module WS-WIND Kecepatan Angin 0.02 m/s
9447 02/09/2026 15:33:19 WS-MOD-01Weather Station Module WS-PRES Tekanan Udara 998.00 hPa
9448 02/09/2026 15:33:14 WS-MOD-01Weather Station Module WS-RH Kelembapan Udara 63.00 %RH
9449 02/09/2026 15:33:14 WS-MOD-01Weather Station Module WS-WIND Kecepatan Angin 0.02 m/s
9450 02/09/2026 15:33:14 WS-MOD-01Weather Station Module WS-PRES Tekanan Udara 998.00 hPa
9451 02/09/2026 15:33:14 WS-MOD-01Weather Station Module WS-TEMP Suhu Udara 30.10 °C
9452 02/09/2026 15:33:14 WS-MOD-01Weather Station Module WS-DIR Arah Angin 309.00 °
9453 02/09/2026 15:33:09 WS-MOD-01Weather Station Module WS-RH Kelembapan Udara 62.80 %RH
9454 02/09/2026 15:33:09 WS-MOD-01Weather Station Module WS-WIND Kecepatan Angin 0.02 m/s
9455 02/09/2026 15:33:09 WS-MOD-01Weather Station Module WS-PRES Tekanan Udara 998.00 hPa
9456 02/09/2026 15:33:09 WS-MOD-01Weather Station Module WS-TEMP Suhu Udara 30.10 °C
9457 02/09/2026 15:33:09 WS-MOD-01Weather Station Module WS-DIR Arah Angin 308.90 °
9458 02/09/2026 15:33:04 WS-MOD-01Weather Station Module WS-PRES Tekanan Udara 998.00 hPa
9459 02/09/2026 15:33:04 WS-MOD-01Weather Station Module WS-TEMP Suhu Udara 30.10 °C
9460 02/09/2026 15:33:04 WS-MOD-01Weather Station Module WS-DIR Arah Angin 309.00 °
9461 02/09/2026 15:33:04 WS-MOD-01Weather Station Module WS-RH Kelembapan Udara 62.70 %RH
9462 02/09/2026 15:33:04 WS-MOD-01Weather Station Module WS-WIND Kecepatan Angin 0.02 m/s
9463 02/09/2026 15:32:59 WS-MOD-01Weather Station Module WS-PRES Tekanan Udara 998.00 hPa
9464 02/09/2026 15:32:59 WS-MOD-01Weather Station Module WS-TEMP Suhu Udara 30.10 °C
9465 02/09/2026 15:32:59 WS-MOD-01Weather Station Module WS-DIR Arah Angin 309.00 °
9466 02/09/2026 15:32:59 WS-MOD-01Weather Station Module WS-RH Kelembapan Udara 62.60 %RH
9467 02/09/2026 15:32:59 WS-MOD-01Weather Station Module WS-WIND Kecepatan Angin 0.02 m/s
9468 02/09/2026 15:32:54 WS-MOD-01Weather Station Module WS-DIR Arah Angin 302.20 °
9469 02/09/2026 15:32:54 WS-MOD-01Weather Station Module WS-RH Kelembapan Udara 62.80 %RH
9470 02/09/2026 15:32:54 WS-MOD-01Weather Station Module WS-WIND Kecepatan Angin 0.03 m/s
9471 02/09/2026 15:32:54 WS-MOD-01Weather Station Module WS-PRES Tekanan Udara 998.00 hPa
9472 02/09/2026 15:32:54 WS-MOD-01Weather Station Module WS-TEMP Suhu Udara 30.10 °C
9473 02/09/2026 15:32:49 WS-MOD-01Weather Station Module WS-RH Kelembapan Udara 63.20 %RH
9474 02/09/2026 15:32:49 WS-MOD-01Weather Station Module WS-WIND Kecepatan Angin 0.03 m/s
9475 02/09/2026 15:32:49 WS-MOD-01Weather Station Module WS-PRES Tekanan Udara 998.00 hPa
9476 02/09/2026 15:32:49 WS-MOD-01Weather Station Module WS-TEMP Suhu Udara 30.10 °C
9477 02/09/2026 15:32:49 WS-MOD-01Weather Station Module WS-DIR Arah Angin 288.90 °
9478 02/09/2026 15:32:44 WS-MOD-01Weather Station Module WS-WIND Kecepatan Angin 0.02 m/s
9479 02/09/2026 15:32:44 WS-MOD-01Weather Station Module WS-PRES Tekanan Udara 998.00 hPa
9480 02/09/2026 15:32:44 WS-MOD-01Weather Station Module WS-TEMP Suhu Udara 30.10 °C
9481 02/09/2026 15:32:44 WS-MOD-01Weather Station Module WS-DIR Arah Angin 289.20 °
9482 02/09/2026 15:32:44 WS-MOD-01Weather Station Module WS-RH Kelembapan Udara 63.20 %RH
9483 02/09/2026 15:32:39 WS-MOD-01Weather Station Module WS-PRES Tekanan Udara 998.00 hPa
9484 02/09/2026 15:32:39 WS-MOD-01Weather Station Module WS-TEMP Suhu Udara 30.10 °C
9485 02/09/2026 15:32:39 WS-MOD-01Weather Station Module WS-DIR Arah Angin 287.40 °
9486 02/09/2026 15:32:39 WS-MOD-01Weather Station Module WS-RH Kelembapan Udara 63.20 %RH
9487 02/09/2026 15:32:39 WS-MOD-01Weather Station Module WS-WIND Kecepatan Angin 0.02 m/s
9488 02/09/2026 15:32:34 WS-MOD-01Weather Station Module WS-TEMP Suhu Udara 30.00 °C
9489 02/09/2026 15:32:34 WS-MOD-01Weather Station Module WS-DIR Arah Angin 300.20 °
9490 02/09/2026 15:32:34 WS-MOD-01Weather Station Module WS-RH Kelembapan Udara 63.00 %RH
9491 02/09/2026 15:32:34 WS-MOD-01Weather Station Module WS-WIND Kecepatan Angin 0.04 m/s
9492 02/09/2026 15:32:34 WS-MOD-01Weather Station Module WS-PRES Tekanan Udara 998.00 hPa
9493 02/09/2026 15:32:29 WS-MOD-01Weather Station Module WS-RH Kelembapan Udara 63.00 %RH
9494 02/09/2026 15:32:29 WS-MOD-01Weather Station Module WS-WIND Kecepatan Angin 0.03 m/s
9495 02/09/2026 15:32:29 WS-MOD-01Weather Station Module WS-PRES Tekanan Udara 998.00 hPa
9496 02/09/2026 15:32:29 WS-MOD-01Weather Station Module WS-TEMP Suhu Udara 30.10 °C
9497 02/09/2026 15:32:29 WS-MOD-01Weather Station Module WS-DIR Arah Angin 307.90 °
9498 02/09/2026 15:32:24 WS-MOD-01Weather Station Module WS-RH Kelembapan Udara 63.00 %RH
9499 02/09/2026 15:32:24 WS-MOD-01Weather Station Module WS-WIND Kecepatan Angin 0.02 m/s
9500 02/09/2026 15:32:24 WS-MOD-01Weather Station Module WS-PRES Tekanan Udara 998.00 hPa
Menampilkan maksimal 100 data per halaman